DLH2EL EGLL-EDDM

Flight info

Callsign DLH2EL
Flight time 1h 18m
Altitude 37000
Route DET L6 DVR UL9 KONAN UL607 SPI DCT MOVUM T109 HAREM T104 ROKIL
Aircraft A320/M-SDE2E3FGIJ1LORWXYZ/HB1

Departure

Time 2026-05-07 21:36
Airport London Heathrow Airport (EGLL)

Arrival

Time 2026-05-07 22:54
Airport Munich Airport (EDDM)
Time Latitude Longitude Altitude Speed Heading
2026-05-07 20:56 51.46996 -0.44682 87 ft 0 kts 270°
2026-05-07 21:24 51.46996 -0.44672 90 ft 3 kts 270°
2026-05-07 21:25 51.46996 -0.44639 87 ft 3 kts 270°
2026-05-07 21:25 51.46996 -0.44609 87 ft 2 kts 270°
2026-05-07 21:25 51.46998 -0.44580 88 ft 3 kts 232°
2026-05-07 21:25 51.47013 -0.44562 88 ft 3 kts 193°
2026-05-07 21:26 51.47031 -0.44558 88 ft 1 kts 180°
2026-05-07 21:26 51.47032 -0.44558 88 ft 0 kts 180°
2026-05-07 21:28 51.47031 -0.44558 88 ft 2 kts 180°
2026-05-07 21:28 51.46995 -0.44558 80 ft 5 kts 180°
2026-05-07 21:28 51.46962 -0.44558 87 ft 4 kts 179°
2026-05-07 21:29 51.46924 -0.44557 87 ft 9 kts 179°
2026-05-07 21:29 51.46841 -0.44556 87 ft 13 kts 179°
2026-05-07 21:29 51.46744 -0.44554 89 ft 15 kts 179°
2026-05-07 21:29 51.46666 -0.44615 89 ft 13 kts 252°
2026-05-07 21:30 51.46663 -0.44746 87 ft 11 kts 269°
2026-05-07 21:30 51.46662 -0.44863 87 ft 10 kts 270°
2026-05-07 21:30 51.46663 -0.44999 87 ft 16 kts 270°
2026-05-07 21:30 51.46662 -0.45175 87 ft 15 kts 270°
2026-05-07 21:31 51.46662 -0.45336 87 ft 14 kts 270°
2026-05-07 21:31 51.46662 -0.45481 87 ft 12 kts 269°
2026-05-07 21:31 51.46661 -0.45613 87 ft 11 kts 269°
2026-05-07 21:31 51.46659 -0.45731 89 ft 10 kts 269°
2026-05-07 21:32 51.46660 -0.45855 90 ft 18 kts 270°
2026-05-07 21:32 51.46659 -0.46146 88 ft 29 kts 270°
2026-05-07 21:32 51.46658 -0.46478 87 ft 30 kts 270°
2026-05-07 21:32 51.46656 -0.46820 87 ft 31 kts 270°
2026-05-07 21:33 51.46654 -0.47177 87 ft 33 kts 269°
2026-05-07 21:33 51.46654 -0.47547 87 ft 34 kts 270°
2026-05-07 21:33 51.46653 -0.47913 87 ft 32 kts 270°
2026-05-07 21:33 51.46650 -0.48183 87 ft 15 kts 259°
2026-05-07 21:34 51.46601 -0.48216 87 ft 7 kts 178°
2026-05-07 21:34 51.46561 -0.48213 88 ft 5 kts 178°
2026-05-07 21:34 51.46525 -0.48212 88 ft 7 kts 180°
2026-05-07 21:34 51.46485 -0.48183 88 ft 6 kts 122°
2026-05-07 21:35 51.46479 -0.48121 87 ft 5 kts 91°
2026-05-07 21:35 51.46480 -0.48058 87 ft 7 kts 90°
2026-05-07 21:35 51.46479 -0.47722 86 ft 67 kts 90°
2026-05-07 21:35 51.46485 -0.46610 91 ft 130 kts 90°
2026-05-07 21:36 51.46498 -0.44916 277 ft 161 kts 91°
2026-05-07 21:36 51.46504 -0.43124 991 ft 163 kts 91°
2026-05-07 21:36 51.46410 -0.41264 1543 ft 177 kts 107°
2026-05-07 21:36 51.45795 -0.39446 1959 ft 195 kts 129°
2026-05-07 21:37 51.44916 -0.37635 2338 ft 218 kts 126°
2026-05-07 21:37 51.44032 -0.35499 2810 ft 242 kts 121°
2026-05-07 21:37 51.43446 -0.32893 3559 ft 254 kts 103°
2026-05-07 21:37 51.43045 -0.30113 4516 ft 258 kts 103°
2026-05-07 21:38 51.42637 -0.27298 5477 ft 262 kts 103°
2026-05-07 21:38 51.42233 -0.24418 6378 ft 268 kts 102°
2026-05-07 21:38 51.41828 -0.21468 7206 ft 274 kts 103°
2026-05-07 21:38 51.41414 -0.18451 8032 ft 280 kts 103°
2026-05-07 21:39 51.41047 -0.15755 8772 ft 285 kts 103°
2026-05-07 21:39 51.40621 -0.12619 9645 ft 290 kts 103°
2026-05-07 21:39 51.40183 -0.09430 10349 ft 301 kts 103°
2026-05-07 21:39 51.39712 -0.06035 10633 ft 325 kts 103°
2026-05-07 21:40 51.39203 -0.02404 11119 ft 339 kts 103°
2026-05-07 21:40 51.38682 0.01306 11857 ft 344 kts 104°
2026-05-07 21:40 51.38157 0.05066 12656 ft 347 kts 104°
2026-05-07 21:40 51.37629 0.08856 13451 ft 351 kts 104°
2026-05-07 21:41 51.37097 0.12683 14185 ft 355 kts 104°
2026-05-07 21:41 51.36559 0.16549 14855 ft 358 kts 104°
2026-05-07 21:41 51.36010 0.20465 15514 ft 362 kts 104°
2026-05-07 21:41 51.35451 0.24428 16163 ft 367 kts 104°
2026-05-07 21:42 51.34883 0.28422 16812 ft 371 kts 104°
2026-05-07 21:42 51.34307 0.32468 17282 ft 375 kts 104°
2026-05-07 21:42 51.33724 0.36539 17903 ft 379 kts 104°
2026-05-07 21:42 51.33128 0.40677 18489 ft 383 kts 104°
2026-05-07 21:43 51.32530 0.44848 19049 ft 386 kts 104°
2026-05-07 21:43 51.31930 0.49048 19618 ft 390 kts 104°
2026-05-07 21:43 51.31322 0.53283 20199 ft 393 kts 104°
2026-05-07 21:43 51.30707 0.57558 20783 ft 396 kts 104°
2026-05-07 21:44 51.30064 0.61863 21359 ft 400 kts 106°
2026-05-07 21:44 51.29333 0.66164 21937 ft 403 kts 108°
2026-05-07 21:44 51.28536 0.70470 22503 ft 406 kts 108°
2026-05-07 21:44 51.27706 0.74801 23066 ft 409 kts 109°
2026-05-07 21:45 51.26870 0.79158 23603 ft 413 kts 108°
2026-05-07 21:45 51.26034 0.83560 24053 ft 416 kts 108°
2026-05-07 21:45 51.25202 0.87999 24510 ft 419 kts 108°
2026-05-07 21:45 51.24372 0.92476 24992 ft 421 kts 108°
2026-05-07 21:46 51.23826 0.95450 25265 ft 423 kts 108°
2026-05-07 21:46 51.22996 0.99977 25675 ft 426 kts 108°
2026-05-07 21:46 51.22160 1.04521 26073 ft 428 kts 108°
2026-05-07 21:46 51.21314 1.09089 26461 ft 431 kts 108°
2026-05-07 21:47 51.20176 1.15176 26973 ft 434 kts 108°
2026-05-07 21:47 51.19589 1.18298 27235 ft 436 kts 108°
2026-05-07 21:47 51.18426 1.24452 27722 ft 439 kts 108°
2026-05-07 21:47 51.17828 1.27607 27977 ft 441 kts 108°
2026-05-07 21:48 51.16940 1.32305 28344 ft 443 kts 108°
2026-05-07 21:48 51.16256 1.37096 28688 ft 448 kts 99°
2026-05-07 21:48 51.15966 1.42064 29028 ft 451 kts 95°
2026-05-07 21:48 51.15736 1.47060 29360 ft 453 kts 95°
2026-05-07 21:49 51.15500 1.52083 29688 ft 456 kts 96°
2026-05-07 21:49 51.15258 1.57128 30006 ft 458 kts 96°
2026-05-07 21:49 51.15009 1.62183 30283 ft 460 kts 96°
2026-05-07 21:49 51.14753 1.67284 30540 ft 462 kts 96°
2026-05-07 21:50 51.14494 1.72405 30787 ft 464 kts 96°
2026-05-07 21:50 51.14234 1.77537 31026 ft 466 kts 96°
2026-05-07 21:50 51.13974 1.82690 31257 ft 468 kts 96°
2026-05-07 21:50 51.13711 1.87865 31487 ft 470 kts 96°
2026-05-07 21:51 51.13442 1.93036 31802 ft 469 kts 96°
2026-05-07 21:51 51.13171 1.98219 32125 ft 469 kts 96°
2026-05-07 21:51 51.12900 2.03388 32445 ft 468 kts 96°
2026-05-07 21:51 51.12627 2.08543 32760 ft 468 kts 96°
2026-05-07 21:52 51.12351 2.13698 33075 ft 467 kts 96°
2026-05-07 21:52 51.12074 2.18847 33390 ft 467 kts 96°
2026-05-07 21:52 51.11798 2.24006 33712 ft 467 kts 96°
2026-05-07 21:52 51.11518 2.29143 34029 ft 466 kts 96°
2026-05-07 21:53 51.11233 2.34287 34305 ft 466 kts 96°
2026-05-07 21:53 51.10945 2.39414 34573 ft 466 kts 96°
2026-05-07 21:53 51.10656 2.44550 34826 ft 466 kts 96°
2026-05-07 21:53 51.10367 2.49673 35072 ft 466 kts 96°
2026-05-07 21:54 51.10073 2.54816 35308 ft 466 kts 96°
2026-05-07 21:54 51.09778 2.59947 35546 ft 466 kts 96°
2026-05-07 21:54 51.09393 2.65061 35772 ft 465 kts 102°
2026-05-07 21:54 51.08604 2.70034 35988 ft 464 kts 108°
2026-05-07 21:55 51.07705 2.74951 36202 ft 464 kts 108°
2026-05-07 21:55 51.06809 2.79890 36417 ft 464 kts 108°
2026-05-07 21:55 51.05917 2.84819 36625 ft 464 kts 108°
2026-05-07 21:55 51.05023 2.89743 36831 ft 464 kts 108°
2026-05-07 21:56 51.04137 2.94610 37026 ft 464 kts 108°
2026-05-07 21:56 51.03237 2.99536 37109 ft 464 kts 108°
2026-05-07 21:56 51.01434 3.09352 37103 ft 463 kts 108°
2026-05-07 21:57 50.99622 3.19163 37096 ft 463 kts 108°
2026-05-07 21:57 50.97799 3.28943 37083 ft 463 kts 108°
2026-05-07 21:58 50.95968 3.38732 37078 ft 463 kts 108°
2026-05-07 21:58 50.94137 3.48513 37079 ft 462 kts 108°
2026-05-07 21:59 50.92291 3.58282 37070 ft 462 kts 108°
2026-05-07 21:59 50.90438 3.68032 37067 ft 462 kts 108°
2026-05-07 22:00 50.88564 3.77772 37082 ft 462 kts 109°
2026-05-07 22:00 50.86677 3.87501 37077 ft 462 kts 109°
2026-05-07 22:01 50.84785 3.97207 37081 ft 462 kts 109°
2026-05-07 22:01 50.82881 4.06920 37084 ft 462 kts 109°
2026-05-07 22:02 50.80965 4.16633 37085 ft 462 kts 109°
2026-05-07 22:02 50.79051 4.26321 37088 ft 462 kts 109°
2026-05-07 22:03 50.77128 4.36027 37092 ft 462 kts 109°
2026-05-07 22:03 50.75201 4.45721 37096 ft 462 kts 109°
2026-05-07 22:04 50.73261 4.55393 37086 ft 462 kts 109°
2026-05-07 22:04 50.71317 4.65066 37086 ft 463 kts 109°
2026-05-07 22:05 50.69451 4.74708 37091 ft 463 kts 108°
2026-05-07 22:05 50.67585 4.84411 37083 ft 463 kts 108°
2026-05-07 22:06 50.65691 4.94112 37083 ft 463 kts 109°
2026-05-07 22:06 50.63729 5.03762 37088 ft 463 kts 109°
2026-05-07 22:07 50.61727 5.13383 37092 ft 462 kts 110°
2026-05-07 22:07 50.59715 5.23013 37096 ft 463 kts 110°
2026-05-07 22:08 50.57712 5.32636 37103 ft 463 kts 110°
2026-05-07 22:08 50.55706 5.42245 37102 ft 463 kts 110°
2026-05-07 22:09 50.53692 5.51849 37103 ft 463 kts 110°
2026-05-07 22:09 50.51664 5.61449 37098 ft 463 kts 110°
2026-05-07 22:10 50.49762 5.71109 37093 ft 463 kts 107°
2026-05-07 22:10 50.48063 5.80877 37087 ft 464 kts 106°
2026-05-07 22:11 50.46366 5.90640 37087 ft 463 kts 107°
2026-05-07 22:11 50.44594 6.00355 37083 ft 463 kts 108°
2026-05-07 22:12 50.42787 6.10065 37083 ft 463 kts 108°
2026-05-07 22:12 50.40981 6.19769 37082 ft 463 kts 108°
2026-05-07 22:13 50.39178 6.29462 37088 ft 464 kts 108°
2026-05-07 22:13 50.37364 6.39157 37082 ft 464 kts 108°
2026-05-07 22:14 50.35544 6.48831 37086 ft 464 kts 108°
2026-05-07 22:14 50.33711 6.58521 37084 ft 463 kts 108°
2026-05-07 22:15 50.31874 6.68186 37083 ft 464 kts 108°
2026-05-07 22:15 50.30031 6.77850 37084 ft 463 kts 108°
2026-05-07 22:16 50.28177 6.87503 37084 ft 463 kts 108°
2026-05-07 22:16 50.26313 6.97135 37082 ft 463 kts 108°
2026-05-07 22:17 50.24441 7.06774 37085 ft 463 kts 108°
2026-05-07 22:17 50.22564 7.16393 37081 ft 463 kts 108°
2026-05-07 22:18 50.19756 7.30761 37085 ft 463 kts 108°
2026-05-07 22:19 50.17864 7.40353 37088 ft 463 kts 109°
2026-05-07 22:19 50.15956 7.49948 37088 ft 463 kts 109°
2026-05-07 22:20 50.14044 7.59535 37094 ft 463 kts 109°
2026-05-07 22:20 50.12121 7.69111 37094 ft 463 kts 109°
2026-05-07 22:21 50.10201 7.78666 37099 ft 463 kts 109°
2026-05-07 22:21 50.08273 7.88233 37105 ft 463 kts 109°
2026-05-07 22:22 50.06334 7.97771 37109 ft 462 kts 109°
2026-05-07 22:22 50.04379 8.07310 37109 ft 462 kts 109°
2026-05-07 22:23 50.02422 8.16839 37112 ft 462 kts 109°
2026-05-07 22:23 50.00464 8.26354 37114 ft 462 kts 109°
2026-05-07 22:24 49.98498 8.35857 37116 ft 462 kts 109°
2026-05-07 22:24 49.96519 8.45355 37115 ft 462 kts 109°
2026-05-07 22:25 49.94239 8.54646 37116 ft 459 kts 120°
2026-05-07 22:25 49.91087 8.63249 37114 ft 459 kts 121°
2026-05-07 22:26 49.87926 8.71834 37106 ft 459 kts 122°
2026-05-07 22:26 49.84750 8.80407 37107 ft 458 kts 122°
2026-05-07 22:27 49.81560 8.88965 37095 ft 458 kts 122°
2026-05-07 22:27 49.78370 8.97507 37097 ft 458 kts 122°
2026-05-07 22:28 49.75184 9.06043 37101 ft 458 kts 122°
2026-05-07 22:28 49.71995 9.14564 37102 ft 458 kts 122°
2026-05-07 22:29 49.68793 9.23071 37104 ft 458 kts 122°
2026-05-07 22:29 49.65581 9.31569 37094 ft 458 kts 122°
2026-05-07 22:30 49.62371 9.39975 37096 ft 457 kts 126°
2026-05-07 22:30 49.58379 9.47522 37097 ft 454 kts 134°
2026-05-07 22:31 49.54213 9.54815 37101 ft 454 kts 134°
2026-05-07 22:31 49.50046 9.62118 36993 ft 454 kts 134°
2026-05-07 22:31 49.47961 9.65764 36726 ft 454 kts 134°
2026-05-07 22:32 49.45879 9.69397 36481 ft 453 kts 134°
2026-05-07 22:32 49.43793 9.73033 36238 ft 453 kts 134°
2026-05-07 22:32 49.41712 9.76650 35983 ft 453 kts 134°
2026-05-07 22:32 49.39617 9.80292 35209 ft 457 kts 134°
2026-05-07 22:33 49.38217 9.82721 34624 ft 459 kts 134°
2026-05-07 22:33 49.36095 9.86396 33756 ft 461 kts 134°
2026-05-07 22:33 49.33982 9.90040 33202 ft 454 kts 134°
2026-05-07 22:33 49.31897 9.93635 32592 ft 449 kts 134°
2026-05-07 22:34 49.29834 9.97190 32001 ft 444 kts 134°
2026-05-07 22:34 49.27787 10.00711 31418 ft 440 kts 134°
2026-05-07 22:34 49.25762 10.04191 30837 ft 436 kts 134°
2026-05-07 22:34 49.23755 10.07635 30267 ft 433 kts 134°
2026-05-07 22:35 49.21752 10.11060 29642 ft 429 kts 134°
2026-05-07 22:35 49.19775 10.14438 29100 ft 423 kts 134°
2026-05-07 22:35 49.17823 10.17770 28553 ft 418 kts 134°
2026-05-07 22:35 49.15893 10.21068 28016 ft 414 kts 135°
2026-05-07 22:36 49.13979 10.24337 27508 ft 417 kts 135°
2026-05-07 22:36 49.11967 10.27679 26960 ft 435 kts 136°
2026-05-07 22:36 49.09884 10.31040 26434 ft 437 kts 137°
2026-05-07 22:36 49.07783 10.34385 25898 ft 435 kts 137°
2026-05-07 22:37 49.05668 10.37736 25393 ft 440 kts 137°
2026-05-07 22:37 49.03547 10.41093 24872 ft 439 kts 137°
2026-05-07 22:37 49.01440 10.44444 24358 ft 436 kts 137°
2026-05-07 22:37 48.99355 10.47781 23844 ft 433 kts 136°
2026-05-07 22:38 48.97292 10.51084 23256 ft 429 kts 136°
2026-05-07 22:38 48.95236 10.54371 22731 ft 426 kts 136°
2026-05-07 22:38 48.93198 10.57620 22198 ft 423 kts 136°
2026-05-07 22:38 48.91168 10.60848 21654 ft 420 kts 136°
2026-05-07 22:39 48.89153 10.64044 21121 ft 417 kts 136°
2026-05-07 22:39 48.87153 10.67212 20571 ft 414 kts 136°
2026-05-07 22:39 48.85188 10.70324 20040 ft 412 kts 136°
2026-05-07 22:39 48.83188 10.73488 19495 ft 409 kts 137°
2026-05-07 22:40 48.81250 10.76551 18968 ft 406 kts 137°
2026-05-07 22:40 48.79296 10.79633 18443 ft 404 kts 137°
2026-05-07 22:40 48.77353 10.82690 17861 ft 401 kts 137°
2026-05-07 22:40 48.75419 10.85727 17349 ft 399 kts 137°
2026-05-07 22:41 48.73497 10.88739 16834 ft 396 kts 137°
2026-05-07 22:41 48.71591 10.91722 16331 ft 393 kts 136°
2026-05-07 22:41 48.69693 10.94692 15832 ft 391 kts 136°
2026-05-07 22:41 48.67811 10.97629 15337 ft 388 kts 137°
2026-05-07 22:42 48.65931 11.00552 14841 ft 386 kts 137°
2026-05-07 22:42 48.64064 11.03451 14344 ft 383 kts 137°
2026-05-07 22:42 48.62207 11.06332 13836 ft 381 kts 137°
2026-05-07 22:42 48.60354 11.09201 13313 ft 389 kts 137°
2026-05-07 22:43 48.58434 11.12145 12790 ft 396 kts 139°
2026-05-07 22:43 48.56269 11.14661 12258 ft 391 kts 149°
2026-05-07 22:43 48.54023 11.16956 11735 ft 388 kts 149°
2026-05-07 22:43 48.51788 11.19234 11204 ft 386 kts 148°
2026-05-07 22:44 48.49741 11.21838 10879 ft 385 kts 141°
2026-05-07 22:44 48.47747 11.24537 10801 ft 385 kts 141°
2026-05-07 22:44 48.45768 11.27208 10314 ft 379 kts 141°
2026-05-07 22:44 48.43839 11.29899 9548 ft 378 kts 135°
2026-05-07 22:45 48.42404 11.33211 8810 ft 381 kts 116°
2026-05-07 22:45 48.41813 11.37095 8263 ft 385 kts 93°
2026-05-07 22:45 48.42017 11.41049 8082 ft 370 kts 84°
2026-05-07 22:45 48.42317 11.44787 7950 ft 351 kts 84°
2026-05-07 22:46 48.42600 11.48350 7823 ft 335 kts 84°
2026-05-07 22:46 48.42866 11.51753 7697 ft 320 kts 84°
2026-05-07 22:46 48.43121 11.55021 7573 ft 307 kts 84°
2026-05-07 22:46 48.43364 11.58119 7322 ft 300 kts 84°
2026-05-07 22:47 48.43608 11.61267 6943 ft 297 kts 84°
2026-05-07 22:47 48.43843 11.64307 6563 ft 296 kts 84°
2026-05-07 22:47 48.44080 11.67373 6145 ft 294 kts 83°
2026-05-07 22:47 48.44318 11.70464 5731 ft 292 kts 83°
2026-05-07 22:48 48.44550 11.73443 5340 ft 289 kts 83°
2026-05-07 22:48 48.44781 11.76432 4965 ft 286 kts 83°
2026-05-07 22:48 48.45007 11.79393 4541 ft 283 kts 83°
2026-05-07 22:48 48.45233 11.82334 4111 ft 282 kts 83°
2026-05-07 22:49 48.45457 11.85254 3997 ft 281 kts 83°
2026-05-07 22:49 48.45631 11.88190 4000 ft 279 kts 92°
2026-05-07 22:49 48.45238 11.90922 4005 ft 257 kts 116°
2026-05-07 22:49 48.44298 11.93054 4009 ft 235 kts 138°
2026-05-07 22:50 48.43172 11.94715 3975 ft 221 kts 140°
2026-05-07 22:50 48.42104 11.96286 3886 ft 208 kts 140°
2026-05-07 22:50 48.41067 11.97747 3621 ft 200 kts 150°
2026-05-07 22:50 48.39840 11.98347 3502 ft 174 kts 188°
2026-05-07 22:51 48.38783 11.97944 3493 ft 145 kts 217°
2026-05-07 22:51 48.38071 11.96988 3519 ft 133 kts 239°
2026-05-07 22:51 48.37719 11.95740 3413 ft 128 kts 262°
2026-05-07 22:51 48.37617 11.94424 3274 ft 126 kts 264°
2026-05-07 22:52 48.37519 11.93122 3121 ft 123 kts 264°
2026-05-07 22:52 48.37423 11.91851 2962 ft 122 kts 264°
2026-05-07 22:52 48.37327 11.90579 2796 ft 123 kts 263°
2026-05-07 22:52 48.37231 11.89302 2599 ft 124 kts 263°
2026-05-07 22:53 48.37132 11.87998 2366 ft 128 kts 263°
2026-05-07 22:53 48.37031 11.86656 2144 ft 132 kts 263°
2026-05-07 22:53 48.36926 11.85270 1917 ft 135 kts 263°
2026-05-07 22:53 48.36818 11.83853 1733 ft 138 kts 264°
2026-05-07 22:54 48.36709 11.82414 1549 ft 139 kts 264°
2026-05-07 22:54 48.36611 11.81100 1481 ft 101 kts 263°
2026-05-07 22:54 48.36566 11.80497 1473 ft 16 kts 263°
2026-05-07 22:54 48.36558 11.80397 1481 ft 8 kts 263°
2026-05-07 22:55 48.36550 11.80294 1481 ft 17 kts 263°
2026-05-07 22:55 48.36535 11.80086 1480 ft 21 kts 262°
2026-05-07 22:55 48.36503 11.79857 1479 ft 23 kts 248°
2026-05-07 22:55 48.36418 11.79637 1478 ft 25 kts 233°
2026-05-07 22:56 48.36311 11.79420 1480 ft 26 kts 233°
2026-05-07 22:56 48.36186 11.79298 1485 ft 21 kts 175°
2026-05-07 22:56 48.36037 11.79325 1484 ft 17 kts 174°
2026-05-07 22:56 48.35917 11.79355 1476 ft 19 kts 156°
2026-05-07 22:57 48.35785 11.79397 1481 ft 21 kts 173°
2026-05-07 22:57 48.35635 11.79423 1483 ft 23 kts 173°
2026-05-07 22:57 48.35470 11.79452 1485 ft 25 kts 173°
2026-05-07 22:57 48.35312 11.79478 1483 ft 19 kts 173°
2026-05-07 22:58 48.35221 11.79492 1481 ft 6 kts 187°
2026-05-07 22:58 48.35209 11.79449 1483 ft 4 kts 262°
2026-05-07 22:58 48.35207 11.79415 1485 ft 3 kts 263°
2026-05-07 22:58 48.35205 11.79389 1485 ft 2 kts 262°
2026-05-07 22:59 48.35201 11.79340 1485 ft 5 kts 263°
2026-05-07 22:59 48.35200 11.79337 1485 ft 0 kts 263°